Lapse_Rate
6.4 6.2 5.9 6.0 5.9 5.3 4.8 4.3 3.1 1.9 1.0 0.3 0.1 -0.1 -0.5 -1.0 -0.6 1.4 4.8 4.0 3.1 2.9 3.2 2.9 4.0 2.8 3.1 3.8 3.4 2.6 6.5 6.5 6.5 6.5 6.5 5.2 6.2 5.4 4.6 4.7 2.9 4.2 5.0 3.4 0.8
5.9 5.7 5.7 5.6 5.2 4.5 4.0 3.4 2.7 1.8 1.1 0.4 0.0 -0.2 -0.6 -1.4 0.8 4.8 4.6 4.0 3.5 3.0 3.2 3.1 3.9 3.2 2.8 4.6 3.3 4.1 6.5 6.5 6.4 6.4 6.5 5.4 5.9 5.0 5.5 4.0 5.0 5.0 0.5 -1.1 -0.5
5.4 5.4 5.0 4.9 4.1 3.7 3.4 2.8 2.4 1.8 1.2 0.6 -0.0 -0.7 -1.0 -1.4 3.9 5.5 4.9 4.4 4.1 3.1 2.9 3.3 4.1 4.8 5.0 4.9 5.1 5.7 6.5 6.4 6.2 5.7 5.3 5.7 5.2 5.1 5.2 6.5 5.2 5.1 1.7 0.3 -0.9
5.1 4.8 4.5 4.3 3.4 3.3 3.0 2.5 2.1 1.6 1.2 0.5 -0.2 -0.7 -1.0 0.5 6.5 5.5 5.4 4.8 4.4 4.0 4.7 4.8 4.4 4.9 5.8 6.5 5.1 6.5 6.0 6.0 5.4 5.1 4.7 5.9 5.3 5.7 3.5 6.1 5.1 3.4 2.7 0.9 -0.0
5.2 4.3 4.2 3.2 3.0 3.0 2.7 2.3 1.8 1.3 0.9 0.2 -0.2 -0.5 1.3 5.0 5.6 5.8 5.4 5.0 5.1 5.3 3.9 4.6 4.2 4.9 6.5 6.0 5.5 6.5 6.3 4.9 4.3 3.3 4.2 4.8 5.4 5.9 5.8 5.4 4.1 3.6 2.7 2.6 2.5
4.4 4.7 3.3 2.6 2.7 2.5 2.1 1.7 1.4 1.1 0.6 0.0 -0.1 -0.3 3.0 6.1 5.7 5.0 4.7 5.1 4.6 4.7 4.3 4.0 5.0 5.0 5.4 6.0 6.3 5.7 5.6 4.6 4.2 4.9 4.7 6.2 5.7 4.5 6.1 5.2 3.4 3.0 3.3 3.2 2.9
4.2 3.2 2.6 2.4 2.1 1.8 1.6 1.2 1.0 0.7 0.1 0.0 0.1 0.9 4.4 5.7 4.8 4.5 5.1 5.4 5.1 5.5 5.5 5.1 5.0 5.4 5.1 6.3 5.0 5.7 6.5 6.4 5.5 5.0 6.2 4.6 6.5 6.5 6.5 5.1 4.2 3.3 3.0 3.9 3.4
2.4 2.2 2.1 1.9 1.6 1.3 1.2 0.9 0.7 0.3 -0.0 0.2 0.4 1.5 4.8 5.5 5.1 5.9 5.3 6.0 5.1 5.8 5.9 5.7 5.4 4.8 5.4 5.6 4.9 6.5 6.5 6.5 6.5 5.3 5.5 5.8 6.5 6.2 6.0 4.5 4.1 3.5 2.7 3.1 3.4
1.5 1.4 1.3 1.3 1.1 0.9 0.7 0.5 0.4 0.3 0.5 0.8 2.2 3.4 5.8 5.9 6.1 5.4 5.7 6.0 5.4 5.6 5.3 5.5 4.7 3.8 4.5 6.5 6.5 6.5 6.5 6.5 6.5 5.9 6.5 6.5 6.5 6.2 5.6 5.2 4.4 3.1 2.9 3.7 3.1
1.0 0.9 0.8 0.7 0.5 0.4 0.2 0.1 0.8 1.1 1.6 2.1 3.0 4.9 5.9 6.0 5.9 5.8 5.7 5.9 5.4 5.4 4.9 4.1 1.9 6.4 6.5 6.5 6.5 6.5 6.5 6.5 6.5 6.5 6.5 6.5 6.5 6.5 5.9 4.6 4.4 3.5 2.9 3.2 3.3
0.6 0.5 0.4 0.3 0.2 0.1 0.5 1.4 3.2 3.7 4.7 5.8 5.6 5.7 5.8 5.7 5.9 5.8 5.2 5.9 5.3 3.7 6.5 5.1 6.5 6.5 6.5 6.5 6.5 6.5 6.5 6.5 6.5 6.5 6.5 6.5 6.5 6.5 6.4 5.4 4.8 4.4 3.8 3.9 3.9
0.2 0.1 0.0 0.1 -0.0 0.1 0.2 3.7 4.2 4.3 5.4 5.9 5.8 5.9 5.9 5.6 6.1 5.3 5.2 5.6 5.6 6.5 6.4 6.5 6.5 6.5 6.5 6.5 6.5 6.5 6.5 6.5 6.5 6.5 6.5 6.5 6.5 6.5 6.4 6.4 5.9 5.2 4.8 4.9 4.7
-0.0 -0.1 -0.1 -0.1 0.1 0.6 3.0 3.8 2.1 3.5 4.1 6.2 6.0 6.1 6.2 6.2 5.8 5.6 5.6 5.5 6.2 6.5 6.5 6.5 6.5 6.4 6.5 6.5 6.5 6.5 6.5 6.5 6.5 6.5 6.5 6.5 6.5 6.5 6.5 6.4 6.1 5.5 4.7 4.8 4.5
0.1 -0.0 0.0 0.6 2.1 1.8 3.4 2.3 2.0 3.0 6.5 6.5 6.4 6.5 6.3 5.6 5.9 5.6 4.1 6.0 6.0 6.5 6.5 6.5 6.3 6.5 6.5 6.5 6.5 6.5 6.5 6.5 6.5 6.5 6.5 6.5 6.5 6.5 6.5 6.5 6.4 5.5 3.7 3.5 3.5
0.3 0.4 0.7 1.1 2.2 3.0 3.5 1.7 2.1 2.8 6.5 6.5 6.4 6.8 5.9 6.0 5.8 5.4 3.6 5.0 6.5 6.5 6.5 6.5 6.5 6.5 6.5 6.5 6.5 6.5 6.5 6.5 6.5 6.5 6.5 6.5 6.5 6.5 6.5 6.5 6.5 5.8 4.8 3.8 3.3
0.3 0.8 0.7 1.3 1.2 2.7 1.7 2.0 2.2 6.5 6.5 6.5 6.2 6.4 6.4 5.5 6.0 5.4 3.5 2.7 5.3 6.5 6.5 6.5 5.4 6.5 6.5 6.5 6.5 6.5 6.5 6.5 6.5 6.5 6.5 6.5 6.5 6.5 6.5 6.5 6.5 6.2 4.7 4.0 3.4
0.5 0.7 0.8 2.5 3.3 1.8 1.4 2.0 6.5 6.5 6.5 6.5 6.5 6.5 6.5 6.5 6.5 6.3 6.5 6.5 6.5 6.5 6.5 6.5 6.5 6.2 6.0 6.5 6.5 6.5 6.5 6.5 6.5 6.5 6.5 6.5 6.5 6.5 6.5 6.5 6.0 6.3 5.3 4.1 2.9
1.8 2.2 2.2 2.3 1.9 1.8 1.3 6.0 6.5 6.5 6.5 6.5 6.5 6.5 6.5 6.5 6.5 6.5 6.5 6.5 6.5 6.5 6.5 6.5 6.5 6.5 6.3 6.5 6.5 6.5 6.5 6.5 6.5 6.5 6.5 6.5 6.5 6.5 6.5 4.6 4.9 6.0 4.6 3.7 3.3
2.7 0.3 1.0 0.7 2.1 0.8 2.3 6.5 6.5 6.5 6.5 6.5 6.5 6.5 6.5 6.5 6.5 6.5 6.5 6.5 6.5 6.5 6.5 6.5 6.5 6.5 6.5 6.4 6.5 6.5 6.5 6.5 6.5 6.5 6.5 6.5 6.5 6.5 6.5 6.4 5.6 5.5 4.6 3.7 3.5
0.0 0.4 1.8 1.2 1.6 1.1 5.3 6.5 6.5 6.4 6.4 6.5 6.5 6.5 6.5 6.5 6.5 6.5 6.5 6.5 6.5 6.3 6.1 6.5 6.5 6.5 6.5 6.3 6.0 6.5 6.5 6.5 6.5 6.5 6.5 6.5 6.5 6.5 6.5 6.5 6.5 5.9 4.4 3.6 4.1
0.2 2.2 2.2 1.0 0.8 1.2 6.5 6.5 6.5 6.1 6.1 6.5 6.5 6.5 6.5 6.5 6.5 6.5 6.5 6.5 6.5 6.5 6.0 6.5 6.5 6.5 6.5 6.5 6.5 6.5 6.5 6.5 6.5 6.5 6.5 6.5 6.5 6.5 6.5 6.5 6.5 5.1 4.2 4.1 3.9
-0.4 5.2 0.6 -0.0 3.5 3.8 6.5 6.5 6.2 6.2 5.0 6.3 6.3 6.5 6.5 6.5 6.5 6.5 6.5 6.5 6.2 6.3 6.5 6.5 6.5 6.5 6.5 6.5 6.5 6.5 6.5 6.5 6.5 6.5 6.5 6.5 6.5 6.5 6.5 5.5 4.8 5.1 4.4 4.0 3.8
0.1 1.1 -0.0 1.3 6.5 6.5 6.2 6.5 6.1 6.5 6.4 6.5 6.5 6.5 6.5 6.5 6.5 6.5 6.5 6.3 6.1 6.4 6.5 6.5 6.5 6.5 6.5 6.5 6.5 6.5 6.5 6.5 6.5 6.5 6.5 6.5 6.5 6.5 6.2 6.0 4.5 5.1 4.0 3.6 3.6
-0.4 6.5 1.2 -2.0 0.8 6.0 6.5 6.5 6.5 6.1 6.3 6.0 6.4 6.4 6.5 6.5 6.5 6.5 6.5 6.5 6.1 6.1 7.2 5.7 6.5 6.5 6.5 6.5 6.5 6.5 6.5 6.5 6.5 6.5 6.5 6.5 6.5 6.5 6.5 6.5 4.9 4.7 3.8 3.2 3.5
-2.4 4.1 3.2 6.5 5.5 5.7 6.1 6.5 6.5 6.5 6.2 6.1 6.5 6.5 6.5 6.5 6.5 6.5 6.5 6.5 6.3 6.7 5.8 6.2 6.5 6.5 6.5 6.5 6.5 6.5 6.5 6.5 6.5 6.5 6.5 6.5 6.5 6.5 6.5 6.5 4.9 4.3 3.5 4.3 5.4
0.5 1.9 0.0 2.8 3.9 6.3 6.4 6.5 6.5 6.5 6.4 6.5 6.5 6.5 6.5 6.5 6.5 6.5 6.5 6.5 6.5 6.4 6.5 6.1 6.5 6.5 6.5 6.5 6.5 6.5 6.5 6.5 6.5 6.5 6.5 6.5 6.5 6.5 5.6 4.9 4.7 4.0 3.9 5.6 6.0
-4.4 -2.2 0.8 4.6 5.4 6.5 6.5 6.5 6.5 5.9 6.0 6.1 6.3 6.4 6.5 6.4 5.6 5.2 4.5 4.2 5.3 6.4 6.5 6.5 6.5 6.5 6.5 6.5 6.5 6.5 6.5 6.5 6.5 6.5 6.5 6.5 6.5 6.3 6.5 6.0 5.1 4.8 4.8 5.3 5.4
Wind_Speed
3 2 2 4 5 6 6 8 10 10 11 13 13 13 14 15 15 1 3 2 4 12 10 5 4 6 4 3 4 3 4 0 2 3 3 4 6 3 1 2 4 5 9 9 12
4 2 2 4 5 5 6 7 9 10 11 12 12 13 13 15 2 3 3 5 7 10 5 7 5 6 4 3 3 5 3 3 3 2 3 5 3 5 4 7 7 5 15 16 12
1 2 2 4 5 4 5 7 8 9 11 12 12 13 13 8 2 2 5 5 6 5 2 1 0 2 4 3 4 2 3 3 1 3 3 4 6 4 6 6 7 5 8 13 15
1 2 3 5 5 5 6 7 8 9 10 11 11 13 14 2 3 3 6 7 7 3 1 3 5 3 3 2 3 2 1 2 4 2 5 5 5 8 11 1 3 6 4 11 17
2 2 5 6 4 5 6 7 8 8 10 10 10 12 3 3 1 4 7 9 3 2 5 3 4 2 2 2 4 1 3 5 5 7 4 3 9 9 9 5 6 10 16 16 14
4 5 6 5 4 6 7 8 8 9 9 9 9 9 1 3 3 5 7 4 5 4 5 6 3 2 3 1 1 2 4 7 4 6 5 3 7 6 7 6 12 14 13 12 14
7 6 4 4 5 7 7 7 8 9 9 8 7 2 2 2 2 6 4 2 2 2 3 2 2 3 2 2 3 2 6 5 5 5 3 3 7 9 2 3 12 11 9 11 10
7 4 4 5 6 7 8 8 9 9 8 6 5 1 1 3 4 3 5 3 4 2 3 2 4 4 3 1 6 4 5 3 3 8 5 3 2 7 5 7 9 9 8 8 9
6 5 5 6 6 8 8 9 9 8 5 3 1 1 1 6 3 3 2 2 3 3 4 4 5 3 4 4 5 7 1 2 6 5 2 7 2 5 6 5 8 7 7 7 7
6 5 6 6 7 7 8 6 4 4 0 1 1 3 4 1 3 3 2 3 4 2 4 6 5 3 4 4 3 1 1 2 4 5 9 7 4 2 4 5 6 5 6 6 6
6 6 6 6 6 5 4 3 4 4 4 2 1 3 0 3 3 4 3 2 3 7 3 4 5 2 4 3 2 2 1 3 4 1 6 3 5 2 1 3 5 4 4 5 5
5 5 5 5 4 3 1 3 2 2 5 1 1 2 0 1 2 6 3 3 4 2 1 5 1 2 2 2 2 1 2 4 3 3 5 4 3 2 1 1 1 2 2 3 3
3 4 3 3 2 1 2 3 2 2 5 1 0 2 1 2 2 5 4 1 3 2 3 3 1 1 1 2 3 2 3 2 3 4 5 6 2 5 2 2 1 2 3 4 4
3 4 2 2 1 1 1 3 2 1 4 3 1 1 2 3 4 3 5 2 4 2 1 1 4 1 2 1 3 3 2 1 2 1 3 4 5 5 5 4 2 4 5 7 7
4 4 4 4 3 2 1 3 0 3 2 2 0 1 1 4 4 4 3 5 3 2 4 1 3 4 2 0 2 6 2 2 1 4 2 2 2 5 6 4 3 4 5 6 7
5 5 6 1 2 1 2 2 4 5 3 1 2 1 3 4 3 3 7 8 1 3 3 2 3 1 1 1 1 4 2 5 4 3 1 2 4 4 6 7 4 1 5 6 7
2 4 4 1 2 2 2 4 5 3 2 0 1 2 2 3 4 5 5 7 3 2 3 5 2 5 3 2 4 8 6 4 5 4 5 1 0 7 7 8 7 3 4 7 8
2 6 3 3 3 2 3 5 1 2 2 2 2 2 2 3 3 4 3 2 4 3 3 2 3 4 6 2 1 4 4 4 4 3 5 4 6 5 7 8 7 3 4 7 8
6 3 3 4 5 3 5 3 3 1 1 1 2 2 0 0 4 4 2 2 0 2 2 3 4 4 3 2 2 1 4 3 2 1 1 3 6 3 3 6 5 3 5 7 7
3 3 3 11 5 4 4 3 2 1 0 1 5 1 4 1 1 2 1 0 1 3 2 3 2 1 4 1 5 3 4 2 3 3 5 5 6 5 10 11 7 5 6 7 6
4 3 3 8 3 5 3 4 2 2 0 0 4 2 1 2 2 2 3 2 1 1 2 2 2 2 1 3 2 3 1 4 3 4 4 3 6 5 14 14 8 7 7 7 7
3 3 3 2 4 2 2 1 2 2 5 3 3 2 3 3 2 2 5 0 1 2 2 2 3 3 3 1 2 1 2 4 4 4 1 3 8 4 8 10 8 6 6 6 7
3 1 3 3 2 1 2 3 3 2 3 2 2 1 1 3 1 2 3 1 2 2 3 3 1 3 4 4 3 2 3 4 5 3 6 5 6 3 1 3 6 6 7 7 6
3 2 4 4 1 6 4 1 1 2 2 3 2 1 2 1 3 4 3 1 2 3 7 3 2 5 6 3 1 4 4 4 5 3 4 9 13 12 7 8 8 9 7 8 8
4 1 1 0 2 4 3 4 4 3 1 1 1 1 3 3 1 2 2 2 3 2 3 3 2 2 4 6 4 6 10 8 10 6 7 18 7 20 7 7 8 6 7 9 10
3 4 3 2 2 2 1 4 6 2 4 2 3 3 2 4 5 6 5 4 5 2 3 2 2 2 5 2 1 6 14 14 17 15 14 21 25 20 12 2 5 7 8 12 15
1 1 4 2 1 2 2 4 4 5 1 1 3 4 2 3 3 1 2 3 4 8 6 5 4 2 5 4 7 7 8 12 5 6 7 8 10 2 1 4 5 6 9 14 14
Wind_Direction
204 215 239 272 283 288 296 299 303 307 308 312 321 323 327 335 325 233 32 309 317 328 326 302 47 354 37 61 56 101 60 309 277 169 293 344 16 311 349 3 340 331 32 336 317
228 235 260 278 281 288 296 296 299 302 307 311 318 322 330 339 325 44 348 356 348 354 39 33 11 357 39 34 26 76 96 220 231 240 312 314 0 320 21 355 358 5 7 5 23
269 235 232 269 275 284 288 286 291 301 307 312 319 323 328 335 45 351 353 359 352 356 81 87 276 50 56 30 18 103 170 193 298 272 353 311 339 335 3 26 20 348 351 13 38
297 276 277 274 276 282 282 284 293 300 306 313 319 325 326 323 142 293 346 343 339 326 41 37 29 46 70 40 359 348 261 220 276 348 337 303 309 65 58 130 312 34 20 40 42
289 281 271 267 276 281 282 289 294 301 304 311 321 332 340 53 5 324 349 346 352 50 47 62 60 76 64 340 339 127 324 318 307 318 280 303 66 96 61 18 22 55 47 42 43
280 284 264 273 287 285 289 291 296 297 300 311 325 328 347 92 294 340 352 4 19 44 29 42 94 109 102 36 64 321 293 294 314 354 28 18 76 55 30 345 52 48 43 37 42
264 261 269 295 290 286 288 291 292 291 297 309 328 332 52 153 336 333 351 337 356 46 78 48 86 77 101 6 347 346 350 346 29 338 22 287 54 360 293 60 57 36 32 40 32
263 277 294 288 288 291 287 284 282 288 296 301 339 347 117 301 315 18 347 14 20 56 83 93 71 95 59 326 22 46 48 32 346 8 1 62 54 2 24 74 53 41 31 34 26
278 291 296 292 288 283 282 286 286 292 288 289 345 23 91 326 37 322 35 31 344 26 36 76 67 76 25 67 17 8 102 348 328 42 327 26 87 345 8 68 69 44 32 42 31
277 275 271 274 277 282 293 284 308 321 93 202 264 46 356 353 327 340 347 51 65 31 32 42 48 60 37 68 242 280 7 302 272 350 54 60 108 34 6 64 77 48 33 39 41
259 254 258 267 280 307 340 64 36 11 46 88 167 127 344 299 353 359 11 42 30 45 59 11 55 266 245 184 135 136 163 256 265 26 83 86 136 136 29 66 78 57 37 33 24
252 247 254 273 305 321 74 113 167 181 98 14 102 69 209 167 63 341 10 77 58 69 35 22 289 249 165 100 104 187 281 287 294 15 97 191 162 192 214 235 160 118 69 29 3
225 227 248 284 314 31 126 141 331 117 99 339 203 125 186 102 102 343 34 81 76 84 51 145 232 101 149 65 35 292 200 199 230 28 48 129 265 206 210 180 254 305 306 294 297
178 188 201 159 63 241 48 331 359 107 79 306 356 356 65 113 51 359 0 102 34 115 83 224 320 107 63 19 113 310 184 310 235 64 243 181 288 224 203 196 233 280 302 291 300
139 161 170 204 158 84 231 327 64 58 32 171 47 274 42 103 147 18 4 19 90 20 80 267 33 26 8 257 156 233 352 255 211 192 81 220 128 290 137 206 202 289 335 319 289
117 143 159 146 53 292 323 56 51 45 256 116 56 45 71 16 38 14 28 33 61 79 24 319 280 69 252 83 58 302 39 51 58 100 356 219 153 234 188 186 170 261 337 328 317
124 174 175 123 162 317 57 48 48 133 17 57 79 62 70 25 44 41 37 16 49 91 353 348 344 327 36 25 21 36 38 340 354 7 236 285 296 261 196 153 160 174 300 303 303
54 133 28 48 358 41 55 50 149 139 185 7 46 69 105 25 30 40 70 59 33 59 95 147 306 22 352 78 153 52 116 136 266 260 284 319 239 276 170 177 167 111 303 298 308
129 5 36 342 360 46 70 78 224 186 356 58 60 113 354 70 116 86 57 160 47 28 117 127 282 335 59 333 85 115 57 150 104 12 359 258 288 317 164 198 202 280 310 294 297
83 53 350 330 5 58 75 205 171 212 29 144 177 105 196 218 121 84 181 184 151 33 85 198 298 33 297 56 37 91 150 58 20 275 272 283 283 236 201 212 220 257 276 283 277
59 65 276 344 50 51 144 204 165 95 110 119 184 144 165 165 124 144 157 327 265 99 99 145 78 308 344 42 160 25 37 59 126 158 216 293 262 222 202 199 195 237 256 276 286
94 56 314 20 52 34 112 93 4 21 26 51 86 86 162 158 123 152 197 208 170 182 84 23 116 265 228 219 233 210 220 152 138 221 161 147 270 294 228 173 182 238 281 270 260
102 170 328 81 125 42 291 47 57 45 29 47 89 18 66 158 161 148 153 28 102 100 137 156 350 348 339 11 17 218 190 121 101 81 207 148 259 8 40 207 253 289 281 262 274
93 68 344 50 46 127 134 118 81 12 67 67 127 100 116 130 20 167 153 134 61 74 89 87 152 198 198 189 183 245 205 174 139 139 193 230 277 270 239 257 285 294 293 303 298
32 196 200 140 3 112 117 154 151 178 119 124 107 189 174 143 109 125 102 51 24 147 67 95 241 224 260 245 241 245 238 194 208 196 204 268 254 266 278 273 282 297 305 302 292
116 125 25 76 336 111 30 198 168 195 162 210 186 166 159 159 185 199 146 188 199 107 131 32 256 40 291 8 275 267 260 225 234 244 254 261 274 279 275 260 290 298 295 301 304
323 28 106 312 49 85 225 177 210 142 267 80 178 124 184 236 159 81 135 98 169 157 169 151 140 88 265 346 301 279 242 190 197 204 206 214 244 52 280 303 285 285 292 299 303